STARLINK-34641

Last updated on Fri Aug 15 2025 00:02:05 GMT+0000 (Coordinated Universal Time)

1 64797U 25150H 25225.63994928 .00069880 00000+0 11279-2 0 9994 2 64797 70.0002 320.6288 0003393 270.3877 89.6921 15.52536747 5640
UTC large
Height (km)
Speed (km/s)
/
Latitude / Longitude
Inclination (degrees)
Orbital Period (minutes)
Azimuth
Elevation
Range (km)
Doppler Factor

Next 0 passes for location: London (51.5072 / 0.1276)

Sorry there are no passes over London.
STARLINK-34641